sat.trackr.live / text

‹ back to catalog

STARLINK-2050

NORAD 47357 · 2021-005J

PAYLOAD ACTIVE UNKNOWN

§ Identity

Operator
Country
US
Launch date
2021-01-20
Launch site
AFETR
Launch vehicle
Mass (kg)
RCS (m²)

Purposes: comms

External: N2YO · Heavens-Above · Gunter

§ Orbital elements

Epoch: 2026-05-25T06:00:02.000160Z

Period
94.02 min
Inclination
53.1592°
Eccentricity
0.0001146
Mean motion
15.31661244 rev/d
Perigee alt
470.1 km
Apogee alt
471.6 km
Semi-major
6,849.0 km
B*
1.9382e-3
RAAN
66.7972°
Arg perigee
89.1767°
Mean anomaly
154.2012°
Rev number
581

§ Raw data

STARLINK-20501 47357U 21005J   26145.25002315  .00060192  00000+0  19382-2 0  99922 47357  53.1592  66.7972 0001146  89.1767 154.2012 15.31661244  5812

JSON: /api/v1/satellites/47357 · /tle

For live sub-satellite position, see the globe view (requires WebGL).

§ Visibility from observer

Set your observer location to see the next 7 days of passes ≥ 10°. The values pass through the URL so the page stays shareable.

No JS? Fill the form by hand. The geolocation button needs JavaScript.